Powrót do katalogu

FLOCK 4H 26

AktywnyNaukaSSO
NORAD 66729·PAYLOAD·🇺🇸 United States

Wystrzelony Nov 28, 2025 z Vandenberg Space Force Base

Loading…

Następne Przeloty (najbliższe 24 godziny)

TLE

ŚwieżeSource: CelesTrak SupGP

Epoka: Sep 14, 2026, 16:45 UTC

1 66729C 25276BR  26257.69799769  .00003672  00000+0  16807-3 0  2575
2 66729  97.4114 329.6190 0006027  67.7069 263.5928 15.20565571    11

Śledź FLOCK 4H 26 w czasie rzeczywistym z AllMySat

Download on the App Store